Medicine Hat, Alberta

5:21 PM MDT on August 28, 2016 (GMT -0600)
Medicine Hat

Weather History for CYXH - August, 2014

Change the Weather History Date:

Tuesday, August 12, 2014

  Actual Average Record
Temperature  
Mean Temperature 60 °F -  
Max Temperature 89 °F 76 °F 93 °F (2001)
Min Temperature 30 °F 49 °F 28 °F (2016)
Degree Days  
Heating Degree Days 6    
Growing Degree Days 10 (Base 50)    
Moisture  
Dew Point 46 °F    
Average Humidity 52    
Maximum Humidity 91    
Minimum Humidity 20    
Precipitation  
Precipitation 0.00 in 0.04 in - ()
Sea Level Pressure  
Sea Level Pressure 29.96 in    
Wind  
Wind Speed 8 mph ()    
Max Wind Speed 20 mph    
Max Gust Speed 22 mph    
Visibility 9.0 miles    
Events      
Averages and records for this station are not official NWS values.
T = Trace of Precipitation, MM = Missing Value Source: Averaged Metar Reports

Daily Weather History Graph

Daily Weather History Graph

Search for Another Location

Airport or City:

Trip Planner

Search our weather history database for the weather conditions in past years. The results will help you decide how hot, cold, wet, or windy it might be!

Date:

Astronomy

Aug. 12, 2014 Rise Set
Actual Time 6:08 AM MDT 8:46 PM MDT
Civil Twilight 5:31 AM MDT 9:22 PM MDT
Nautical Twilight 4:44 AM MDT 10:09 PM MDT
Astronomical Twilight 3:49 AM MDT 11:04 PM MDT
Moon 9:33 PM MDT (8/12) 8:48 AM MDT (8/12)
Length of Visible Light 15h 51m
Length of Day
14h 38m
Waning Gibbous, 94% of the Moon is Illuminated
Aug 12
Waning Gibbous
Aug 17
Last Quarter
Aug 25
New
Sep 2
First Quarter
Sep 8
Full

Hourly Weather History & Observations

Time (MDT) Temp. Dew Point Humidity Pressure Visibility Wind Dir Wind Speed Gust Speed Precip Events Conditions
12:00 AM 32 °F 30 °F 91% 29.87 in - NNW 10.4 mph - -  
12:00 AM 69.8 °F 51.8 °F 53% 30.07 in 9.0 mi NE 3.5 mph - N/A   Clear
1:00 AM 64.4 °F 51.8 °F 64% 30.07 in 9.0 mi NE 5.8 mph - N/A   Clear
2:00 AM 64.4 °F 51.8 °F 64% 30.06 in 9.0 mi ENE 6.9 mph - N/A   Clear
4:00 AM 62.6 °F 50.0 °F 63% 30.05 in 9.0 mi East 5.8 mph - N/A   Clear
6:00 AM 32 °F 30 °F 87% 29.87 in - NNW 10.4 mph - -  
6:00 AM 60.8 °F 50.0 °F 68% 30.05 in 9.0 mi ENE 5.8 mph - N/A   Clear
7:00 AM 60.8 °F 50.0 °F 68% 30.06 in 30.0 mi ENE 2.3 mph - N/A   Mostly Cloudy
8:00 AM 64.4 °F 50.0 °F 59% 30.06 in 30.0 mi East 3.5 mph - N/A   Mostly Cloudy
9:00 AM 69.8 °F 51.8 °F 53% 30.05 in 30.0 mi Variable 2.3 mph - N/A   Mostly Cloudy
10:00 AM 75.2 °F 50.0 °F 41% 30.04 in 30.0 mi Variable 2.3 mph - N/A   Scattered Clouds
12:00 PM 33 °F 30 °F 86% 29.86 in - NNW 11.5 mph - -  
12:00 PM 91.4 °F 46.4 °F 21% 29.98 in 30.0 mi East 12.7 mph - N/A   Overcast
1:00 PM 91.4 °F 46.4 °F 21% 29.96 in 30.0 mi ENE 16.1 mph - N/A   Overcast
3:00 PM 93.2 °F 46.4 °F 20% 29.94 in 30.0 mi East 10.4 mph 19.6 mph N/A   Mostly Cloudy
6:00 PM 34 °F 31 °F 83% 29.81 in - North 19.6 mph - -  
6:00 PM 89.6 °F 48.2 °F 24% 29.91 in 30.0 mi East 12.7 mph 19.6 mph N/A   Mostly Cloudy
7:00 PM 87.8 °F 48.2 °F 25% 29.91 in 30.0 mi East 15.0 mph - N/A   Mostly Cloudy
8:00 PM 84.2 °F 50.0 °F 30% 29.89 in 30.0 mi East 13.8 mph 19.6 mph N/A   Mostly Cloudy
9:00 PM 80.6 °F 51.8 °F 37% 29.91 in 30.0 mi East 15.0 mph 21.9 mph N/A   Overcast
10:00 PM 77.0 °F 53.6 °F 44% 29.91 in 9.0 mi East 13.8 mph 19.6 mph N/A   Clear
11:00 PM 75.2 °F 53.6 °F 47% 29.89 in 9.0 mi East 13.8 mph 19.6 mph N/A   Clear